Weather in Chernevo

Russia / Pskov Oblast     58°38′46″N   28°14′45″E
temp.,
°C
wind,
m/s
gust,
m/s
humid.,
%
clouds,
%
prec.,
mm/h
press.,
hPa
HPBL,
m
19 september, sun
sun1900:00+5ene4127798 0.0 1025534
03:00+4ene4118898 0.0 1024434
06:00+3ene41287100 0.0 1024471
09:00+5ene512725 0.0 1024534
12:00+9e69495 0.0 10241053
15:00+11ene68455 0.0 10231308
18:00+9ene595568 0.0 10231165
21:00+6ene4116661 0.0 1024749
20 september, mon
mon2000:00+4ne4127578 0.0 1024593
03:00+4ene41277100 0.0 1024666
06:00+5ene51276100 0.0 1024710
09:00+5ene51373100 0.0 1024687
12:00+7ene61057100 0.0 1024886
15:00+9ene6949100 0.0 10241133
18:00+7ene5956100 0.0 10241067
21:00+6ene4106293 0.0 1024851
21 september, tue
tue2100:00+4ne396984 0.0 1024635
03:00+3ne397567 0.0 1024449
06:00+2nne388178 0.0 1023329
09:00+4ne477057 0.0 1023410
12:00+9ne45508 0.0 1022988
15:00+11ne4541100 0.0 10211320
18:00+9ne364977 0.0 1021484
21:00+4nne277355 0.0 1022142
22 september, wed
wed2200:00+2nne26885 0.0 1022139
03:00+1n26945 0.0 1022114
06:00+1nne28965 0.0 1022156
09:00+5nne38785 0.0 1022314
12:00+10ne355519 0.0 10221080
15:00+12ne344964 0.0 10201413
18:00+10ne22605 0.0 101924
21:00+5nne11795 0.0 101911
23 september, thu
thu2300:00+4e118632 0.0 101710
03:00+3se11900 0.0 101510
06:00+3se11923 0.0 101310
09:00+6s2375100 0.0 1011173
12:00+11s2458100 0.0 1008730
15:00+13s3554100 0.0 10041092
18:00+11s4865100 0.0 1001790
21:00+8sse41079100 0.0 999521